Time,TemperatureF,DewpointF,PressureIn,WindDirection,WindDirectionDegrees,WindSpeedMPH,WindSpeedGustMPH,Humidity,HourlyPrecipIn,Conditions,Clouds,dailyrainin,SoftwareType,DateUTC
2013-03-09 00:00:00,22.8,18.4,30.23,ESE,112,0.0,0.0,83,0.00,CLR,,0.04,WeatherDisplay:10.37,2013-03-09 05:00:00,
2013-03-09 00:01:00,22.7,18.3,30.24,ESE,112,0.0,1.0,83,0.00,RA,RA,0.00,WeatherDisplay:10.37,2013-03-09 05:01:00,
2013-03-09 00:02:00,22.6,18.3,30.24,ESE,112,1.5,1.5,83,0.00,RA,,0.00,WeatherDisplay:10.37,2013-03-09 05:02:00,
2013-03-09 00:07:00,22.6,18.5,30.24,SE,135,0.0,1.1,84,0.00,RA,,0.00,WeatherDisplay:10.37,2013-03-09 05:07:00,
2013-03-09 00:08:00,22.6,18.3,30.24,SE,135,0.0,0.0,83,0.00,RA,,0.00,WeatherDisplay:10.37,2013-03-09 05:08:00,
2013-03-09 00:13:00,22.6,18.5,30.24,SE,135,0.0,0.0,84,0.00,CLR,,0.00,WeatherDisplay:10.37,2013-03-09 05:13:00,
2013-03-09 00:18:00,22.5,18.4,30.24,SE,135,1.5,1.5,84,0.00,CLR,,0.00,WeatherDisplay:10.37,2013-03-09 05:18:00,
2013-03-09 00:23:00,21.9,17.8,30.24,ESE,112,1.8,2.3,84,0.00,CLR,,0.00,WeatherDisplay:10.37,2013-03-09 05:23:00,
2013-03-09 00:28:00,21.7,17.7,30.24,ESE,112,0.3,1.1,84,0.00,CLR,,0.00,WeatherDisplay:10.37,2013-03-09 05:28:00,
2013-03-09 00:33:00,21.6,17.5,30.24,ESE,112,0.6,1.1,84,0.00,CLR,,0.00,WeatherDisplay:10.37,2013-03-09 05:33:00,
2013-03-09 00:38:00,21.7,17.7,30.24,ESE,112,1.5,1.5,84,0.00,CLR,,0.00,WeatherDisplay:10.37,2013-03-09 05:38:00,
2013-03-09 00:43:00,21.6,17.5,30.24,ESE,112,0.6,1.1,84,0.00,CLR,,0.00,WeatherDisplay:10.37,2013-03-09 05:43:00,
2013-03-09 00:48:00,21.6,17.7,30.24,ESE,112,1.5,1.5,85,0.00,CLR,,0.00,WeatherDisplay:10.37,2013-03-09 05:48:00,
2013-03-09 00:53:00,21.4,17.6,30.24,ESE,112,0.0,1.1,85,0.00,CLR,,0.00,WeatherDisplay:10.37,2013-03-09 05:53:00,
2013-03-09 00:58:00,21.4,17.6,30.24,ESE,112,0.0,0.0,85,0.00,CLR,,0.00,WeatherDisplay:10.37,2013-03-09 05:58:00,
2013-03-09 01:03:00,21.2,17.4,30.24,ESE,112,0.3,1.1,85,0.00,CLR,,0.00,WeatherDisplay:10.37,2013-03-09 06:03:00,
2013-03-09 01:08:00,21.0,17.2,30.24,ESE,112,0.6,1.1,85,0.00,CLR,,0.00,WeatherDisplay:10.37,2013-03-09 06:08:00,
2013-03-09 01:13:00,20.8,17.0,30.24,ESE,112,0.0,0.0,85,0.00,CLR,,0.00,WeatherDisplay:10.37,2013-03-09 06:13:00,
2013-03-09 01:18:00,20.7,16.9,30.25,ESE,112,0.6,0.6,85,0.00,CLR,,0.00,WeatherDisplay:10.37,2013-03-09 06:18:00,
2013-03-09 01:23:00,20.5,16.4,30.25,ESE,112,0.6,0.6,84,0.00,CLR,,0.00,WeatherDisplay:10.37,2013-03-09 06:23:00,
2013-03-09 01:28:00,20.3,16.2,30.25,ESE,112,0.0,0.0,84,0.00,CLR,,0.00,WeatherDisplay:10.37,2013-03-09 06:28:00,
2013-03-09 01:33:00,20.1,16.1,30.25,ESE,112,0.6,0.6,84,0.00,CLR,,0.00,WeatherDisplay:10.37,2013-03-09 06:33:00,
2013-03-09 01:38:00,19.9,15.9,30.25,ESE,112,1.5,1.5,84,0.00,CLR,,0.00,WeatherDisplay:10.37,2013-03-09 06:38:00,
2013-03-09 01:43:00,19.8,15.7,30.25,ESE,112,2.1,2.3,84,0.00,CLR,,0.00,WeatherDisplay:10.37,2013-03-09 06:43:00,
2013-03-09 01:48:00,19.8,15.7,30.25,ESE,112,1.5,2.3,84,0.00,CLR,,0.00,WeatherDisplay:10.37,2013-03-09 06:48:00,
2013-03-09 01:53:00,19.6,15.5,30.25,ESE,112,0.9,1.1,84,0.00,CLR,,0.00,WeatherDisplay:10.37,2013-03-09 06:53:00,
2013-03-09 01:59:00,19.6,15.5,30.25,ESE,112,1.5,1.5,84,0.00,CLR,,0.00,WeatherDisplay:10.37,2013-03-09 06:59:00,
2013-03-09 02:04:00,19.4,15.4,30.25,ESE,112,1.2,1.2,84,0.00,CLR,,0.00,WeatherDisplay:10.37,2013-03-09 07:04:00,
2013-03-09 02:09:00,19.6,15.8,30.25,ESE,112,1.2,1.2,85,0.00,CLR,,0.00,WeatherDisplay:10.37,2013-03-09 07:09:00,
2013-03-09 02:15:00,19.6,15.8,30.24,ESE,112,0.6,1.1,85,0.00,CLR,,0.00,WeatherDisplay:10.37,2013-03-09 07:15:00,
2013-03-09 02:20:00,19.4,15.6,30.24,ESE,112,1.2,1.2,85,0.00,CLR,,0.00,WeatherDisplay:10.37,2013-03-09 07:20:00,
2013-03-09 02:25:00,19.0,15.3,30.23,ESE,112,2.4,2.4,85,0.00,CLR,,0.00,WeatherDisplay:10.37,2013-03-09 07:25:00,
2013-03-09 02:30:00,18.9,15.1,30.23,ESE,112,0.9,1.1,85,0.00,CLR,,0.00,WeatherDisplay:10.37,2013-03-09 07:30:00,
2013-03-09 02:35:00,18.7,14.9,30.23,ESE,112,0.6,1.1,85,0.00,CLR,,0.00,WeatherDisplay:10.37,2013-03-09 07:35:00,
2013-03-09 02:40:00,18.7,14.9,30.22,ESE,112,1.2,1.2,85,0.00,CLR,,0.00,WeatherDisplay:10.37,2013-03-09 07:40:00,
2013-03-09 02:45:00,18.7,14.9,30.22,ESE,112,0.6,1.1,85,0.00,CLR,,0.00,WeatherDisplay:10.37,2013-03-09 07:45:00,
2013-03-09 02:50:00,18.7,14.9,30.21,ESE,112,0.9,1.1,85,0.00,CLR,,0.00,WeatherDisplay:10.37,2013-03-09 07:50:00,
2013-03-09 02:55:00,18.7,14.9,30.21,ESE,112,1.5,1.5,85,0.00,CLR,,0.00,WeatherDisplay:10.37,2013-03-09 07:55:00,
2013-03-09 03:00:00,18.7,14.9,30.21,ESE,112,2.4,2.4,85,0.00,CLR,,0.00,WeatherDisplay:10.37,2013-03-09 08:00:00,
2013-03-09 03:05:00,18.3,14.6,30.21,ESE,112,1.5,1.5,85,0.00,CLR,,0.00,WeatherDisplay:10.37,2013-03-09 08:05:00,
2013-03-09 03:10:00,18.1,14.4,30.21,ESE,112,1.5,2.3,85,0.00,CLR,,0.00,WeatherDisplay:10.37,2013-03-09 08:10:00,
2013-03-09 03:15:00,18.0,14.2,30.21,ESE,112,0.3,0.3,85,0.00,CLR,,0.00,WeatherDisplay:10.37,2013-03-09 08:15:00,
2013-03-09 03:20:00,18.1,14.7,30.21,SSE,158,2.4,2.4,86,0.00,CLR,,0.00,WeatherDisplay:10.37,2013-03-09 08:20:00,
2013-03-09 03:25:00,18.3,14.8,30.21,SE,135,1.8,2.3,86,0.00,CLR,,0.00,WeatherDisplay:10.37,2013-03-09 08:25:00,
2013-03-09 03:30:00,18.3,14.8,30.21,ESE,112,1.5,2.3,86,0.00,CLR,,0.00,WeatherDisplay:10.37,2013-03-09 08:30:00,
2013-03-09 03:35:00,18.3,14.8,30.21,ESE,112,2.1,2.3,86,0.00,CLR,,0.00,WeatherDisplay:10.37,2013-03-09 08:35:00,
2013-03-09 03:40:00,18.3,14.8,30.21,ESE,112,0.9,1.1,86,0.00,CLR,,0.00,WeatherDisplay:10.37,2013-03-09 08:40:00,
2013-03-09 03:45:00,18.5,15.0,30.21,ESE,112,2.1,2.3,86,0.00,CLR,,0.00,WeatherDisplay:10.37,2013-03-09 08:45:00,
2013-03-09 03:50:00,18.5,15.0,30.21,ESE,112,0.6,1.1,86,0.00,CLR,,0.00,WeatherDisplay:10.37,2013-03-09 08:50:00,
2013-03-09 03:55:00,18.1,14.7,30.21,ESE,112,2.1,2.3,86,0.00,CLR,,0.00,WeatherDisplay:10.37,2013-03-09 08:55:00,
2013-03-09 04:00:00,17.6,14.1,30.21,ESE,112,1.8,1.8,86,0.00,CLR,,0.00,WeatherDisplay:10.37,2013-03-09 09:00:00,
2013-03-09 04:05:00,17.4,13.9,30.21,ESE,112,0.6,1.1,86,0.00,CLR,,0.00,WeatherDisplay:10.37,2013-03-09 09:05:00,
2013-03-09 04:10:00,17.2,13.8,30.21,ESE,112,0.0,1.1,86,0.00,CLR,,0.00,WeatherDisplay:10.37,2013-03-09 09:10:00,
2013-03-09 04:15:00,17.2,13.8,30.21,ESE,112,2.1,2.3,86,0.00,CLR,,0.00,WeatherDisplay:10.37,2013-03-09 09:15:00,
2013-03-09 04:20:00,17.1,13.6,30.21,ESE,112,0.3,1.1,86,0.00,CLR,,0.00,WeatherDisplay:10.37,2013-03-09 09:20:00,
2013-03-09 04:25:00,17.1,13.6,30.21,ESE,112,0.9,1.1,86,0.00,CLR,,0.00,WeatherDisplay:10.37,2013-03-09 09:25:00,
2013-03-09 04:30:00,16.9,13.4,30.21,SE,135,1.5,2.3,86,0.00,CLR,,0.00,WeatherDisplay:10.37,2013-03-09 09:30:00,
2013-03-09 04:35:00,16.7,13.2,30.22,SE,135,1.5,1.5,86,0.00,CLR,,0.00,WeatherDisplay:10.37,2013-03-09 09:35:00,
2013-03-09 04:40:00,16.5,13.1,30.21,ESE,112,0.9,1.1,86,0.00,CLR,,0.00,WeatherDisplay:10.37,2013-03-09 09:40:00,
2013-03-09 04:45:00,16.9,13.4,30.22,ESE,112,1.8,2.3,86,0.00,CLR,,0.00,WeatherDisplay:10.37,2013-03-09 09:45:00,
2013-03-09 04:50:00,17.1,13.6,30.22,ESE,112,1.5,1.5,86,0.00,CLR,,0.00,WeatherDisplay:10.37,2013-03-09 09:50:00,
2013-03-09 04:55:00,17.2,13.8,30.22,ESE,112,0.6,1.1,86,0.00,CLR,,0.00,WeatherDisplay:10.37,2013-03-09 09:55:00,
2013-03-09 05:00:00,17.2,13.8,30.22,ESE,112,0.6,1.1,86,0.00,CLR,,0.00,WeatherDisplay:10.37,2013-03-09 10:00:00,
2013-03-09 05:05:00,16.9,13.4,30.22,ESE,112,0.0,0.0,86,0.00,CLR,,0.00,WeatherDisplay:10.37,2013-03-09 10:05:00,
2013-03-09 05:10:00,16.9,13.4,30.22,ESE,112,0.0,0.0,86,0.00,CLR,,0.00,WeatherDisplay:10.37,2013-03-09 10:10:00,
2013-03-09 05:15:00,16.7,13.2,30.22,ESE,112,1.8,1.8,86,0.00,CLR,,0.00,WeatherDisplay:10.37,2013-03-09 10:15:00,
2013-03-09 05:20:00,16.3,12.9,30.22,ESE,112,2.1,2.3,86,0.00,CLR,,0.00,WeatherDisplay:10.37,2013-03-09 10:20:00,
2013-03-09 05:25:00,16.2,12.7,30.22,ESE,112,2.1,2.3,86,0.00,CLR,,0.00,WeatherDisplay:10.37,2013-03-09 10:25:00,
2013-03-09 05:30:00,16.2,12.7,30.22,ESE,112,2.1,2.3,86,0.00,CLR,,0.00,WeatherDisplay:10.37,2013-03-09 10:30:00,
2013-03-09 05:35:00,16.0,12.5,30.22,ESE,112,2.4,2.4,86,0.00,CLR,,0.00,WeatherDisplay:10.37,2013-03-09 10:35:00,
2013-03-09 05:40:00,16.0,12.5,30.22,ESE,112,1.5,2.3,86,0.00,CLR,,0.00,WeatherDisplay:10.37,2013-03-09 10:40:00,
2013-03-09 05:45:00,16.0,12.5,30.22,ESE,112,1.5,2.3,86,0.00,CLR,,0.00,WeatherDisplay:10.37,2013-03-09 10:45:00,
2013-03-09 05:50:00,16.0,12.5,30.22,ESE,112,1.8,2.3,86,0.00,CLR,,0.00,WeatherDisplay:10.37,2013-03-09 10:50:00,
2013-03-09 05:55:00,15.8,12.4,30.22,ESE,112,1.8,2.3,86,0.00,CLR,,0.00,WeatherDisplay:10.37,2013-03-09 10:55:00,
2013-03-09 06:00:00,15.6,11.9,30.22,ESE,112,2.5,2.5,85,0.00,CLR,,0.00,WeatherDisplay:10.37,2013-03-09 11:00:00,
2013-03-09 06:05:00,15.4,11.7,30.22,ESE,112,1.5,1.5,85,0.00,CLR,,0.00,WeatherDisplay:10.37,2013-03-09 11:05:00,
2013-03-09 06:10:00,15.4,11.7,30.22,ESE,112,1.5,2.3,85,0.00,CLR,,0.00,WeatherDisplay:10.37,2013-03-09 11:10:00,
2013-03-09 06:15:00,15.8,12.4,30.22,ESE,112,1.5,1.5,86,0.00,CLR,,0.00,WeatherDisplay:10.37,2013-03-09 11:15:00,
2013-03-09 06:20:00,15.8,12.4,30.23,ESE,112,1.8,2.3,86,0.00,CLR,,0.00,WeatherDisplay:10.37,2013-03-09 11:20:00,
2013-03-09 06:25:00,15.8,12.6,30.23,ESE,112,2.4,2.4,87,0.00,CLR,,0.00,WeatherDisplay:10.37,2013-03-09 11:25:00,
2013-03-09 06:30:00,15.6,12.2,30.22,ESE,112,2.1,2.3,86,0.00,CLR,,0.00,WeatherDisplay:10.37,2013-03-09 11:30:00,
2013-03-09 06:35:00,15.6,12.2,30.22,ESE,112,2.1,2.3,86,0.00,CLR,,0.00,WeatherDisplay:10.37,2013-03-09 11:35:00,
2013-03-09 06:40:00,15.6,12.2,30.22,ESE,112,1.5,2.3,86,0.00,CLR,,0.00,WeatherDisplay:10.37,2013-03-09 11:40:00,
2013-03-09 06:45:00,15.6,12.2,30.22,ESE,112,1.5,2.3,86,0.00,CLR,,0.00,WeatherDisplay:10.37,2013-03-09 11:45:00,
2013-03-09 06:50:00,15.6,12.2,30.22,ESE,112,1.8,2.3,86,0.00,CLR,,0.00,WeatherDisplay:10.37,2013-03-09 11:50:00,
2013-03-09 06:55:00,15.6,12.2,30.22,ESE,112,0.9,1.1,86,0.00,CLR,,0.00,WeatherDisplay:10.37,2013-03-09 11:55:00,
2013-03-09 07:00:00,15.4,12.0,30.23,ESE,112,0.6,1.1,86,0.00,CLR,,0.00,WeatherDisplay:10.37,2013-03-09 12:00:00,
2013-03-09 07:05:00,15.4,12.0,30.23,ESE,112,0.6,1.1,86,0.00,CLR,,0.00,WeatherDisplay:10.37,2013-03-09 12:05:00,
2013-03-09 07:10:00,15.6,12.2,30.23,ESE,112,1.5,1.5,86,0.00,CLR,,0.00,WeatherDisplay:10.37,2013-03-09 12:10:00,
2013-03-09 07:15:00,15.6,12.2,30.23,ESE,112,2.4,2.4,86,0.00,CLR,,0.00,WeatherDisplay:10.37,2013-03-09 12:15:00,
2013-03-09 07:20:00,15.8,12.6,30.24,ESE,112,1.5,2.3,87,0.00,CLR,,0.00,WeatherDisplay:10.37,2013-03-09 12:20:00,
2013-03-09 07:25:00,16.2,13.0,30.24,ESE,112,0.6,1.1,87,0.00,CLR,,0.00,WeatherDisplay:10.37,2013-03-09 12:25:00,
2013-03-09 07:30:00,16.5,13.3,30.24,ESE,112,1.5,1.5,87,0.00,CLR,,0.00,WeatherDisplay:10.37,2013-03-09 12:30:00,
2013-03-09 07:35:00,16.9,13.7,30.24,ESE,112,0.0,1.1,87,0.00,CLR,,0.00,WeatherDisplay:10.37,2013-03-09 12:35:00,
2013-03-09 07:40:00,17.2,14.0,30.24,ESE,112,0.3,1.1,87,0.00,CLR,,0.00,WeatherDisplay:10.37,2013-03-09 12:40:00,
2013-03-09 07:45:00,17.8,14.6,30.24,ESE,112,0.0,0.0,87,0.00,CLR,,0.00,WeatherDisplay:10.37,2013-03-09 12:45:00,
2013-03-09 07:50:00,18.3,15.1,30.25,ESE,112,0.0,0.0,87,0.00,CLR,,0.00,WeatherDisplay:10.37,2013-03-09 12:50:00,
2013-03-09 07:55:00,18.9,15.6,30.25,ESE,112,0.0,0.0,87,0.00,CLR,,0.00,WeatherDisplay:10.37,2013-03-09 12:55:00,
2013-03-09 08:00:00,19.4,16.2,30.25,ESE,112,0.0,0.0,87,0.00,CLR,,0.00,WeatherDisplay:10.37,2013-03-09 13:00:00,
2013-03-09 08:05:00,19.9,16.7,30.25,ESE,112,0.0,0.0,87,0.00,CLR,,0.00,WeatherDisplay:10.37,2013-03-09 13:05:00,
2013-03-09 08:10:00,20.5,17.2,30.25,ESE,112,0.0,0.0,87,0.00,CLR,,0.00,WeatherDisplay:10.37,2013-03-09 13:10:00,
2013-03-09 08:15:00,21.2,17.9,30.25,ESE,112,0.0,0.0,87,0.00,CLR,,0.00,WeatherDisplay:10.37,2013-03-09 13:15:00,
2013-03-09 08:20:00,22.1,18.8,30.26,ESE,112,0.0,0.0,87,0.00,CLR,,0.00,WeatherDisplay:10.37,2013-03-09 13:20:00,
2013-03-09 08:25:00,22.6,19.4,30.26,ESE,112,0.0,0.0,87,0.00,CLR,,0.00,WeatherDisplay:10.37,2013-03-09 13:25:00,
2013-03-09 08:30:00,23.2,20.2,30.26,ESE,112,0.0,0.0,88,0.00,CLR,,0.00,WeatherDisplay:10.37,2013-03-09 13:30:00,
2013-03-09 08:35:00,23.7,20.7,30.26,ESE,112,0.0,0.0,88,0.00,CLR,,0.00,WeatherDisplay:10.37,2013-03-09 13:35:00,
2013-03-09 08:40:00,24.1,21.0,30.26,ESE,112,0.0,0.0,88,0.00,CLR,,0.00,WeatherDisplay:10.37,2013-03-09 13:40:00,
2013-03-09 08:45:00,24.4,21.4,30.26,ESE,112,0.0,0.0,88,0.00,CLR,,0.00,WeatherDisplay:10.37,2013-03-09 13:45:00,
2013-03-09 08:50:00,25.0,21.9,30.26,ESE,112,0.0,0.0,88,0.00,CLR,,0.00,WeatherDisplay:10.37,2013-03-09 13:50:00,
2013-03-09 08:55:00,25.3,22.3,30.26,ESE,112,0.0,0.0,88,0.00,CLR,,0.00,WeatherDisplay:10.37,2013-03-09 13:55:00,
2013-03-09 09:00:00,25.7,22.6,30.26,ESE,112,0.0,0.0,88,0.00,CLR,,0.00,WeatherDisplay:10.37,2013-03-09 14:00:00,
2013-03-09 09:05:00,26.2,23.2,30.26,SSE,158,2.1,2.3,88,0.00,CLR,,0.00,WeatherDisplay:10.37,2013-03-09 14:05:00,
2013-03-09 09:10:00,26.6,23.5,30.26,SE,135,2.5,2.5,88,0.00,CLR,,0.00,WeatherDisplay:10.37,2013-03-09 14:10:00,
2013-03-09 09:15:00,27.0,23.9,30.26,SE,135,1.8,1.8,88,0.00,CLR,,0.00,WeatherDisplay:10.37,2013-03-09 14:15:00,
2013-03-09 09:20:00,27.5,24.4,30.25,SE,135,0.3,1.1,88,0.00,CLR,,0.00,WeatherDisplay:10.37,2013-03-09 14:20:00,
2013-03-09 09:25:00,28.0,24.9,30.25,SSE,158,0.9,1.1,88,0.00,CLR,,0.00,WeatherDisplay:10.37,2013-03-09 14:25:00,
2013-03-09 09:30:00,28.4,25.0,30.25,SW,225,1.5,2.3,87,0.00,CLR,,0.00,WeatherDisplay:10.37,2013-03-09 14:30:00,
2013-03-09 09:35:00,29.1,25.7,30.25,SW,225,0.3,1.1,87,0.00,CLR,,0.00,WeatherDisplay:10.37,2013-03-09 14:35:00,
2013-03-09 09:40:00,29.5,25.8,30.25,SSE,158,0.9,1.1,86,0.00,CLR,,0.00,WeatherDisplay:10.37,2013-03-09 14:40:00,
2013-03-09 09:45:00,29.8,26.2,30.24,SE,135,0.6,1.1,86,0.00,CLR,,0.00,WeatherDisplay:10.37,2013-03-09 14:45:00,
2013-03-09 09:50:00,30.2,26.2,30.24,SW,225,0.6,1.1,85,0.00,CLR,,0.00,WeatherDisplay:10.37,2013-03-09 14:50:00,
2013-03-09 09:55:00,30.6,25.7,30.24,NW,315,0.3,2.3,82,0.00,CLR,,0.00,WeatherDisplay:10.37,2013-03-09 14:55:00,
2013-03-09 10:00:00,31.3,25.8,30.24,West,270,2.1,2.3,80,0.00,CLR,,0.00,WeatherDisplay:10.37,2013-03-09 15:00:00,
2013-03-09 10:05:00,31.5,25.4,30.24,NW,315,1.8,2.3,78,0.00,CLR,,0.00,WeatherDisplay:10.37,2013-03-09 15:05:00,
2013-03-09 10:10:00,32.0,26.5,30.25,West,270,1.5,1.5,80,0.00,CLR,,0.00,WeatherDisplay:10.37,2013-03-09 15:10:00,
2013-03-09 10:15:00,32.5,26.4,30.24,West,270,2.8,2.8,78,0.00,CLR,,0.00,WeatherDisplay:10.37,2013-03-09 15:15:00,
2013-03-09 10:20:00,33.3,27.1,30.24,NNW,338,0.6,1.1,78,0.00,CLR,,0.00,WeatherDisplay:10.37,2013-03-09 15:20:00,
2013-03-09 10:25:00,33.8,27.4,30.24,NW,315,2.8,2.8,77,0.00,CLR,,0.00,WeatherDisplay:10.37,2013-03-09 15:25:00,
2013-03-09 10:30:00,34.3,27.2,30.23,NW,315,1.5,1.5,75,0.00,CLR,,0.00,WeatherDisplay:10.37,2013-03-09 15:30:00,
2013-03-09 10:35:00,34.9,27.1,30.24,West,270,2.8,2.8,73,0.00,CLR,,0.00,WeatherDisplay:10.37,2013-03-09 15:35:00,
2013-03-09 10:41:00,35.2,27.4,30.23,NW,305,0.0,3.0,73,0.00,CLR,CLR,0.00,WeatherDisplay:10.37,2013-03-09 15:41:00,
2013-03-09 10:46:00,36.0,28.1,30.23,West,270,1.8,1.8,73,0.00,CLR,,0.00,WeatherDisplay:10.37,2013-03-09 15:46:00,
2013-03-09 10:51:00,36.3,27.8,30.23,West,270,0.3,1.1,71,0.00,CLR,,0.00,WeatherDisplay:10.37,2013-03-09 15:51:00,
2013-03-09 10:56:00,37.0,28.2,30.23,NW,315,1.5,1.5,70,0.00,CLR,,0.00,WeatherDisplay:10.37,2013-03-09 15:56:00,
2013-03-09 11:01:00,37.6,28.0,30.23,West,270,2.4,2.4,68,0.00,CLR,,0.00,WeatherDisplay:10.37,2013-03-09 16:01:00,
2013-03-09 11:06:00,37.8,27.8,30.23,NW,315,0.9,2.3,67,0.00,CLR,,0.00,WeatherDisplay:10.37,2013-03-09 16:06:00,
2013-03-09 11:11:00,38.5,28.5,30.23,NW,315,0.0,2.3,67,0.00,CLR,,0.00,WeatherDisplay:10.37,2013-03-09 16:11:00,
2013-03-09 11:16:00,38.8,28.4,30.23,NNW,338,0.6,1.1,66,0.00,CLR,,0.00,WeatherDisplay:10.37,2013-03-09 16:16:00,
2013-03-09 11:21:00,39.2,28.4,30.23,NW,315,2.8,4.6,65,0.00,CLR,,0.00,WeatherDisplay:10.37,2013-03-09 16:21:00,
2013-03-09 11:26:00,39.7,28.5,30.23,NNW,338,0.9,2.3,64,0.00,CLR,,0.00,WeatherDisplay:10.37,2013-03-09 16:26:00,
2013-03-09 11:31:00,40.1,28.5,30.23,NNW,338,1.5,2.3,63,0.00,CLR,,0.00,WeatherDisplay:10.37,2013-03-09 16:31:00,
2013-03-09 11:36:00,40.8,28.0,30.22,West,270,2.8,4.6,60,0.00,CLR,,0.00,WeatherDisplay:10.37,2013-03-09 16:36:00,
2013-03-09 11:41:00,41.0,28.6,30.22,NW,315,2.1,2.3,61,0.00,CLR,,0.01,WeatherDisplay:10.37,2013-03-09 16:41:00,
2013-03-09 11:46:00,41.2,27.9,30.22,NNW,338,1.5,3.5,59,0.01,RA,,0.01,WeatherDisplay:10.37,2013-03-09 16:46:00,
2013-03-09 11:51:00,41.5,28.3,30.22,NNW,338,0.6,3.5,59,0.01,RA,,0.01,WeatherDisplay:10.37,2013-03-09 16:51:00,
2013-03-09 11:56:00,42.1,28.4,30.22,NW,315,0.6,2.3,58,0.02,RA,,0.02,WeatherDisplay:10.37,2013-03-09 16:56:00,
2013-03-09 12:01:00,42.3,28.1,30.22,West,270,3.1,3.5,57,0.03,RA,,0.03,WeatherDisplay:10.37,2013-03-09 17:01:00,
2013-03-09 12:06:00,42.6,27.6,30.22,WNW,292,2.8,2.8,55,0.03,RA,,0.04,WeatherDisplay:10.37,2013-03-09 17:06:00,
2013-03-09 12:11:00,43.2,28.9,30.22,NNW,338,0.6,2.3,57,0.04,RA,,0.04,WeatherDisplay:10.37,2013-03-09 17:11:00,
2013-03-09 12:16:00,43.7,28.6,30.21,NW,315,1.5,2.3,55,0.05,RA,,0.05,WeatherDisplay:10.37,2013-03-09 17:16:00,
2013-03-09 12:22:00,44.4,29.2,30.21,WNW,292,0.3,4.6,55,0.06,RA,,0.06,WeatherDisplay:10.37,2013-03-09 17:22:00,
2013-03-09 12:27:00,44.8,28.7,30.21,NW,315,3.1,3.1,53,0.06,RA,,0.06,WeatherDisplay:10.37,2013-03-09 17:27:00,
2013-03-09 12:32:00,44.6,29.0,30.21,NNW,338,2.1,2.3,54,0.07,RA,,0.07,WeatherDisplay:10.37,2013-03-09 17:32:00,
2013-03-09 12:37:00,45.0,29.3,30.21,NNW,338,1.8,1.8,54,0.07,RA,,0.07,WeatherDisplay:10.37,2013-03-09 17:37:00,
2013-03-09 12:42:00,45.3,28.2,30.20,WNW,292,2.4,3.5,51,0.07,RA,,0.08,WeatherDisplay:10.37,2013-03-09 17:42:00,
2013-03-09 12:47:00,45.7,29.5,30.20,NNW,338,0.9,2.3,53,0.07,RA,,0.08,WeatherDisplay:10.37,2013-03-09 17:47:00,
2013-03-09 12:52:00,45.9,29.2,30.20,NW,315,2.4,2.4,52,0.08,RA,,0.09,WeatherDisplay:10.37,2013-03-09 17:52:00,
2013-03-09 12:57:00,46.0,28.9,30.20,NW,315,2.1,3.5,51,0.07,RA,,0.09,WeatherDisplay:10.37,2013-03-09 17:57:00,
2013-03-09 13:02:00,45.7,29.0,30.19,West,270,2.1,2.1,52,0.06,,,0.09,WeatherDisplay:10.37,2013-03-09 18:02:00,
2013-03-09 13:07:00,45.9,28.7,30.19,NW,315,2.5,2.5,51,0.05,CLR,,0.09,WeatherDisplay:10.37,2013-03-09 18:07:00,
2013-03-09 13:12:00,46.8,30.5,30.19,NNW,338,1.8,3.5,53,0.06,RA,,0.10,WeatherDisplay:10.37,2013-03-09 18:12:00,
2013-03-09 13:17:00,47.3,30.1,30.19,NW,315,1.2,2.3,51,0.05,RA,,0.10,WeatherDisplay:10.37,2013-03-09 18:17:00,
2013-03-09 13:22:00,47.5,28.2,30.19,NW,315,2.4,2.4,47,0.04,,,0.10,WeatherDisplay:10.37,2013-03-09 18:22:00,
2013-03-09 13:27:00,47.7,28.4,30.19,WNW,292,4.3,4.3,47,0.04,CLR,,0.10,WeatherDisplay:10.37,2013-03-09 18:27:00,
2013-03-09 13:32:00,47.3,28.1,30.19,WSW,248,4.3,5.8,47,0.03,CLR,,0.10,WeatherDisplay:10.37,2013-03-09 18:32:00,
2013-03-09 13:37:00,47.3,28.1,30.19,WNW,292,2.4,4.6,47,0.03,CLR,,0.10,WeatherDisplay:10.37,2013-03-09 18:37:00,
2013-03-09 13:42:00,47.7,28.4,30.18,North,0,0.9,5.8,47,0.02,CLR,,0.10,WeatherDisplay:10.37,2013-03-09 18:42:00,
2013-03-09 13:47:00,48.6,28.2,30.18,NNW,338,0.9,2.3,45,0.02,CLR,,0.10,WeatherDisplay:10.37,2013-03-09 18:47:00,
2013-03-09 13:53:00,49.3,27.7,30.18,West,270,2.4,4.6,43,0.01,CLR,,0.10,WeatherDisplay:10.37,2013-03-09 18:53:00,
2013-03-09 13:58:00,50.0,28.4,30.18,NW,315,2.1,2.3,43,0.01,CLR,,0.10,WeatherDisplay:10.37,2013-03-09 18:58:00,
2013-03-09 14:03:00,50.0,28.4,30.18,NNW,338,0.6,4.6,43,0.01,CLR,,0.10,WeatherDisplay:10.37,2013-03-09 19:03:00,
2013-03-09 14:08:00,50.0,28.4,30.18,North,0,2.1,3.5,43,0.01,CLR,,0.10,WeatherDisplay:10.37,2013-03-09 19:08:00,
2013-03-09 14:13:00,50.5,28.3,30.18,NW,315,1.5,1.5,42,0.00,CLR,,0.10,WeatherDisplay:10.37,2013-03-09 19:13:00,
2013-03-09 14:18:00,50.5,28.3,30.18,North,0,0.9,2.3,42,0.00,CLR,,0.10,WeatherDisplay:10.37,2013-03-09 19:18:00,
2013-03-09 14:23:00,51.4,29.7,30.18,SW,225,2.1,2.1,43,0.00,CLR,,0.10,WeatherDisplay:10.37,2013-03-09 19:23:00,
2013-03-09 14:28:00,51.8,28.8,30.18,NW,315,1.5,1.5,41,0.00,CLR,,0.10,WeatherDisplay:10.37,2013-03-09 19:28:00,
2013-03-09 14:33:00,51.4,27.3,30.18,West,270,2.4,2.4,39,0.00,CLR,,0.10,WeatherDisplay:10.37,2013-03-09 19:33:00,
2013-03-09 14:38:00,51.4,29.1,30.18,SSW,202,0.9,2.3,42,0.00,CLR,,0.10,WeatherDisplay:10.37,2013-03-09 19:38:00,
2013-03-09 14:43:00,51.8,28.2,30.17,NW,315,2.4,2.4,40,0.00,CLR,,0.10,WeatherDisplay:10.37,2013-03-09 19:43:00,
2013-03-09 14:48:00,51.6,28.7,30.17,North,0,1.5,1.5,41,0.00,CLR,,0.10,WeatherDisplay:10.37,2013-03-09 19:48:00,
2013-03-09 14:53:00,51.6,27.4,30.17,NNE,22,0.0,2.3,39,0.00,CLR,,0.10,WeatherDisplay:10.37,2013-03-09 19:53:00,
2013-03-09 14:58:00,52.3,30.5,30.17,North,0,0.0,1.1,43,0.00,CLR,,0.10,WeatherDisplay:10.37,2013-03-09 19:58:00,
2013-03-09 15:03:00,52.9,31.0,30.17,SSW,202,0.9,1.1,43,0.00,CLR,,0.10,WeatherDisplay:10.37,2013-03-09 20:03:00,
2013-03-09 15:08:00,53.8,32.4,30.17,SSW,202,1.8,1.8,44,0.00,CLR,,0.10,WeatherDisplay:10.37,2013-03-09 20:08:00,
2013-03-09 15:13:00,55.2,33.7,30.17,SSE,158,4.0,4.0,44,0.00,CLR,,0.10,WeatherDisplay:10.37,2013-03-09 20:13:00,
2013-03-09 15:18:00,55.9,33.2,30.17,SSW,202,1.2,4.6,42,0.00,CLR,,0.10,WeatherDisplay:10.37,2013-03-09 20:18:00,
2013-03-09 15:23:00,55.9,31.3,30.17,SE,135,5.2,5.8,39,0.00,CLR,,0.10,WeatherDisplay:10.37,2013-03-09 20:23:00,
2013-03-09 15:28:00,55.4,29.5,30.17,SE,135,3.1,4.6,37,0.00,CLR,,0.10,WeatherDisplay:10.37,2013-03-09 20:28:00,
2013-03-09 15:33:00,55.4,28.9,30.17,SSE,158,6.1,6.1,36,0.00,CLR,,0.10,WeatherDisplay:10.37,2013-03-09 20:33:00,
2013-03-09 15:38:00,55.9,30.7,30.17,SW,225,1.5,4.6,38,0.00,CLR,,0.10,WeatherDisplay:10.37,2013-03-09 20:38:00,
2013-03-09 15:43:00,57.0,31.0,30.16,South,180,4.9,4.9,37,0.00,CLR,,0.10,WeatherDisplay:10.37,2013-03-09 20:43:00,
2013-03-09 15:48:00,57.7,31.6,30.16,SSE,158,4.9,4.9,37,0.00,CLR,,0.10,WeatherDisplay:10.37,2013-03-09 20:48:00,
2013-03-09 15:53:00,57.6,27.9,30.16,SE,135,7.3,7.3,32,0.00,CLR,,0.10,WeatherDisplay:10.37,2013-03-09 20:53:00,
2013-03-09 15:58:00,57.0,30.3,30.16,SSE,158,4.6,6.9,36,0.00,CLR,,0.10,WeatherDisplay:10.37,2013-03-09 20:58:00,
2013-03-09 16:03:00,57.2,29.1,30.16,SE,135,2.4,4.6,34,0.00,CLR,,0.10,WeatherDisplay:10.37,2013-03-09 21:03:00,
2013-03-09 16:08:00,57.4,29.2,30.16,SSE,158,2.4,4.6,34,0.00,CLR,,0.10,WeatherDisplay:10.37,2013-03-09 21:08:00,
2013-03-09 16:13:00,57.0,28.9,30.16,SE,135,3.7,8.1,34,0.00,CLR,,0.10,WeatherDisplay:10.37,2013-03-09 21:13:00,
2013-03-09 16:18:00,56.5,28.4,30.16,SSE,158,4.3,5.8,34,0.00,CLR,,0.10,WeatherDisplay:10.37,2013-03-09 21:18:00,
2013-03-09 16:23:00,56.3,29.0,30.16,SE,135,7.0,7.0,35,0.00,CLR,,0.10,WeatherDisplay:10.37,2013-03-09 21:23:00,
2013-03-09 16:28:00,57.2,30.5,30.16,South,180,4.0,4.6,36,0.00,CLR,,0.10,WeatherDisplay:10.37,2013-03-09 21:28:00,
2013-03-09 16:33:00,57.7,30.9,30.16,SE,135,3.1,4.6,36,0.00,CLR,,0.10,WeatherDisplay:10.37,2013-03-09 21:33:00,
2013-03-09 16:38:00,57.7,30.2,30.16,SSE,158,3.1,5.8,35,0.00,CLR,,0.10,WeatherDisplay:10.37,2013-03-09 21:38:00,
2013-03-09 16:43:00,57.9,31.1,30.16,SSE,158,2.4,2.4,36,0.00,CLR,,0.10,WeatherDisplay:10.37,2013-03-09 21:43:00,
2013-03-09 16:48:00,57.9,31.1,30.16,SSE,158,2.8,5.8,36,0.00,CLR,,0.10,WeatherDisplay:10.37,2013-03-09 21:48:00,
2013-03-09 16:53:00,57.9,29.7,30.16,ESE,112,4.9,4.9,34,0.00,CLR,,0.10,WeatherDisplay:10.37,2013-03-09 21:53:00,
2013-03-09 16:58:00,57.2,30.5,30.16,SE,135,5.2,5.8,36,0.00,CLR,,0.10,WeatherDisplay:10.37,2013-03-09 21:58:00,
2013-03-09 17:03:00,56.5,29.1,30.15,SSE,158,5.2,5.8,35,0.00,CLR,,0.10,WeatherDisplay:10.37,2013-03-09 22:03:00,
2013-03-09 17:08:00,55.6,27.6,30.15,SE,135,3.1,5.8,34,0.00,CLR,,0.10,WeatherDisplay:10.37,2013-03-09 22:08:00,
2013-03-09 17:13:00,54.5,25.2,30.15,SE,135,7.0,7.0,32,0.00,CLR,,0.10,WeatherDisplay:10.37,2013-03-09 22:13:00,
2013-03-09 17:18:00,53.6,25.2,30.15,SE,135,4.9,6.9,33,0.00,CLR,,0.10,WeatherDisplay:10.37,2013-03-09 22:18:00,
2013-03-09 17:23:00,52.9,26.6,30.15,SSE,158,5.2,5.2,36,0.00,CLR,,0.10,WeatherDisplay:10.37,2013-03-09 22:23:00,
2013-03-09 17:28:00,51.8,25.7,30.15,SSE,158,2.4,5.8,36,0.00,CLR,,0.10,WeatherDisplay:10.37,2013-03-09 22:28:00,
2013-03-09 17:33:00,51.3,26.5,30.15,SE,135,3.1,3.5,38,0.00,CLR,,0.10,WeatherDisplay:10.37,2013-03-09 22:33:00,
2013-03-09 17:38:00,51.6,27.4,30.15,SSE,158,6.1,6.1,39,0.00,CLR,,0.10,WeatherDisplay:10.37,2013-03-09 22:38:00,
2013-03-09 17:43:00,51.1,27.0,30.16,SE,135,6.1,6.1,39,0.00,CLR,,0.10,WeatherDisplay:10.37,2013-03-09 22:43:00,
2013-03-09 17:48:00,50.4,26.3,30.15,SE,135,5.2,6.9,39,0.00,CLR,,0.10,WeatherDisplay:10.37,2013-03-09 22:48:00,
2013-03-09 17:53:00,49.6,25.7,30.16,SE,135,4.3,5.8,39,0.00,CLR,,0.10,WeatherDisplay:10.37,2013-03-09 22:53:00,
2013-03-09 17:58:00,49.1,25.8,30.15,SE,135,3.4,4.6,40,0.00,CLR,,0.10,WeatherDisplay:10.37,2013-03-09 22:58:00,
2013-03-09 18:03:00,48.4,25.1,30.16,SE,135,3.1,4.6,40,0.00,CLR,,0.10,WeatherDisplay:10.37,2013-03-09 23:03:00,
2013-03-09 18:08:00,47.8,25.2,30.16,ESE,112,1.5,2.3,41,0.00,CLR,,0.10,WeatherDisplay:10.37,2013-03-09 23:08:00,
2013-03-09 18:13:00,46.9,25.0,30.16,SE,135,0.9,2.3,42,0.00,CLR,,0.10,WeatherDisplay:10.37,2013-03-09 23:13:00,
2013-03-09 18:18:00,45.9,24.6,30.16,SE,135,0.0,0.0,43,0.00,CLR,,0.10,WeatherDisplay:10.37,2013-03-09 23:18:00,
2013-03-09 18:23:00,44.8,24.7,30.16,SE,135,0.0,0.0,45,0.00,CLR,,0.10,WeatherDisplay:10.37,2013-03-09 23:23:00,
2013-03-09 18:28:00,44.2,24.7,30.16,SE,135,0.0,0.0,46,0.00,CLR,,0.10,WeatherDisplay:10.37,2013-03-09 23:28:00,
2013-03-09 18:33:00,43.7,24.2,30.16,SE,135,0.0,0.0,46,0.00,CLR,,0.10,WeatherDisplay:10.37,2013-03-09 23:33:00,
2013-03-09 18:38:00,43.0,24.1,30.16,SE,135,1.2,1.2,47,0.00,CLR,,0.10,WeatherDisplay:10.37,2013-03-09 23:38:00,
2013-03-09 18:43:00,42.3,23.9,30.16,SE,135,1.5,1.5,48,0.00,CLR,,0.10,WeatherDisplay:10.37,2013-03-09 23:43:00,
2013-03-09 18:48:00,41.5,23.8,30.16,ESE,112,1.8,1.8,49,0.00,CLR,,0.10,WeatherDisplay:10.37,2013-03-09 23:48:00,
2013-03-09 18:53:00,40.8,23.1,30.16,ESE,112,2.1,2.3,49,0.00,CLR,,0.10,WeatherDisplay:10.37,2013-03-09 23:53:00,
2013-03-09 18:58:00,40.5,23.3,30.16,ESE,112,2.4,2.4,50,0.00,CLR,,0.10,WeatherDisplay:10.37,2013-03-09 23:58:00,
2013-03-09 19:03:00,39.9,23.2,30.16,ESE,112,1.5,1.5,51,0.00,CLR,,0.10,WeatherDisplay:10.37,2013-03-10 00:03:00,
2013-03-09 19:08:00,39.4,22.7,30.16,ESE,112,1.5,1.5,51,0.00,CLR,,0.10,WeatherDisplay:10.37,2013-03-10 00:08:00,
2013-03-09 19:13:00,39.0,22.9,30.16,ESE,112,2.1,2.3,52,0.00,CLR,,0.10,WeatherDisplay:10.37,2013-03-10 00:13:00,
2013-03-09 19:18:00,38.5,23.3,30.16,ESE,112,2.4,2.4,54,0.00,CLR,,0.10,WeatherDisplay:10.37,2013-03-10 00:18:00,
2013-03-09 19:23:00,38.1,23.4,30.16,ESE,112,2.4,2.4,55,0.00,CLR,,0.10,WeatherDisplay:10.37,2013-03-10 00:23:00,
2013-03-09 19:28:00,37.9,23.2,30.16,ESE,112,2.4,2.4,55,0.00,CLR,,0.10,WeatherDisplay:10.37,2013-03-10 00:28:00,
2013-03-09 19:33:00,37.8,23.5,30.16,ESE,112,2.4,2.4,56,0.00,CLR,,0.10,WeatherDisplay:10.37,2013-03-10 00:33:00,
2013-03-09 19:38:00,37.4,23.5,30.16,ESE,112,2.4,2.4,57,0.00,CLR,,0.10,WeatherDisplay:10.37,2013-03-10 00:38:00,
2013-03-09 19:43:00,37.0,23.6,30.16,ESE,112,2.1,2.3,58,0.00,CLR,,0.10,WeatherDisplay:10.37,2013-03-10 00:43:00,
2013-03-09 19:48:00,36.7,23.7,30.16,ESE,112,2.4,2.4,59,0.00,CLR,,0.10,WeatherDisplay:10.37,2013-03-10 00:48:00,
2013-03-09 19:53:00,36.3,23.8,30.16,ESE,112,2.4,2.4,60,0.00,CLR,,0.10,WeatherDisplay:10.37,2013-03-10 00:53:00,
2013-03-09 19:58:00,36.1,23.6,30.16,ESE,112,2.4,2.4,60,0.00,CLR,,0.10,WeatherDisplay:10.37,2013-03-10 00:58:00,
2013-03-09 20:03:00,36.0,23.4,30.16,ESE,112,2.8,3.5,60,0.00,CLR,,0.10,WeatherDisplay:10.37,2013-03-10 01:03:00,
2013-03-09 20:08:00,35.6,23.9,30.16,ESE,112,2.5,2.5,62,0.00,CLR,,0.10,WeatherDisplay:10.37,2013-03-10 01:08:00,
2013-03-09 20:13:00,35.1,23.3,30.16,ESE,112,2.8,2.8,62,0.00,CLR,,0.10,WeatherDisplay:10.37,2013-03-10 01:13:00,
2013-03-09 20:18:00,34.9,23.2,30.17,ESE,112,1.8,2.3,62,0.00,CLR,,0.10,WeatherDisplay:10.37,2013-03-10 01:18:00,
2013-03-09 20:23:00,34.5,23.2,30.16,ESE,112,1.5,2.3,63,0.00,CLR,,0.10,WeatherDisplay:10.37,2013-03-10 01:23:00,
2013-03-09 20:28:00,34.3,23.4,30.16,ESE,112,1.5,2.3,64,0.00,CLR,,0.10,WeatherDisplay:10.37,2013-03-10 01:28:00,
2013-03-09 20:33:00,34.2,23.6,30.16,ESE,112,2.4,2.4,65,0.00,CLR,,0.10,WeatherDisplay:10.37,2013-03-10 01:33:00,
2013-03-09 20:39:00,34.0,23.8,30.16,ESE,112,2.1,2.3,66,0.00,CLR,,0.10,WeatherDisplay:10.37,2013-03-10 01:39:00,
2013-03-09 20:44:00,34.0,24.2,30.16,ESE,112,2.1,2.1,67,0.00,CLR,,0.10,WeatherDisplay:10.37,2013-03-10 01:44:00,
2013-03-09 20:49:00,34.0,24.2,30.16,ESE,112,1.8,2.3,67,0.00,CLR,,0.10,WeatherDisplay:10.37,2013-03-10 01:49:00,
2013-03-09 20:54:00,34.0,24.2,30.16,East,90,0.6,2.3,67,0.00,CLR,,0.10,WeatherDisplay:10.37,2013-03-10 01:54:00,
2013-03-09 20:59:00,34.2,24.3,30.15,ESE,112,2.4,2.4,67,0.00,CLR,,0.10,WeatherDisplay:10.37,2013-03-10 01:59:00,
2013-03-09 21:04:00,34.9,24.7,30.16,SE,135,3.1,3.1,66,0.00,CLR,,0.10,WeatherDisplay:10.37,2013-03-10 02:04:00,
2013-03-09 21:09:00,35.6,24.6,30.16,SE,135,2.4,2.4,64,0.00,CLR,,0.10,WeatherDisplay:10.37,2013-03-10 02:09:00,
2013-03-09 21:14:00,36.3,24.5,30.16,SE,135,2.4,2.4,62,0.00,CLR,,0.10,WeatherDisplay:10.37,2013-03-10 02:14:00,
2013-03-09 21:19:00,36.7,24.9,30.16,SE,135,1.8,1.8,62,0.00,CLR,,0.10,WeatherDisplay:10.37,2013-03-10 02:19:00,
2013-03-09 21:24:00,36.5,24.3,30.16,SE,135,0.0,0.0,61,0.00,CLR,,0.10,WeatherDisplay:10.37,2013-03-10 02:24:00,
2013-03-09 21:29:00,36.1,24.0,30.16,SE,135,0.0,0.0,61,0.00,CLR,,0.10,WeatherDisplay:10.37,2013-03-10 02:29:00,
2013-03-09 21:34:00,35.8,23.2,30.16,SE,135,0.6,1.1,60,0.00,CLR,,0.10,WeatherDisplay:10.37,2013-03-10 02:34:00,
2013-03-09 21:39:00,35.6,23.1,30.16,SSE,158,2.8,2.8,60,0.00,CLR,,0.10,WeatherDisplay:10.37,2013-03-10 02:39:00,
2013-03-09 21:45:00,35.6,23.1,30.16,SE,135,1.5,1.5,60,0.00,CLR,,0.10,WeatherDisplay:10.37,2013-03-10 02:45:00,
2013-03-09 21:50:00,35.6,23.1,30.16,SE,135,2.1,2.3,60,0.00,CLR,,0.10,WeatherDisplay:10.37,2013-03-10 02:50:00,
2013-03-09 21:55:00,35.8,23.2,30.16,ESE,112,1.8,4.6,60,0.00,CLR,,0.10,WeatherDisplay:10.37,2013-03-10 02:55:00,
2013-03-09 22:00:00,36.5,23.5,30.16,SE,135,3.4,3.5,59,0.00,CLR,,0.10,WeatherDisplay:10.37,2013-03-10 03:00:00,
2013-03-09 22:05:00,37.0,24.0,30.16,SE,135,3.1,3.1,59,0.00,CLR,,0.10,WeatherDisplay:10.37,2013-03-10 03:05:00,
2013-03-09 22:10:00,37.4,23.5,30.16,SE,135,3.1,3.5,57,0.00,CLR,,0.10,WeatherDisplay:10.37,2013-03-10 03:10:00,
2013-03-09 22:15:00,37.9,23.6,30.16,SE,135,3.1,3.5,56,0.00,CLR,,0.10,WeatherDisplay:10.37,2013-03-10 03:15:00,
2013-03-09 22:20:00,38.3,23.5,30.16,SE,135,4.3,5.8,55,0.00,CLR,,0.10,WeatherDisplay:10.37,2013-03-10 03:20:00,
2013-03-09 22:25:00,38.8,23.6,30.16,SSE,158,4.3,5.8,54,0.00,CLR,,0.10,WeatherDisplay:10.37,2013-03-10 03:25:00,
2013-03-09 22:30:00,39.2,23.0,30.16,SSE,158,4.9,5.8,52,0.00,CLR,,0.10,WeatherDisplay:10.37,2013-03-10 03:30:00,
2013-03-09 22:35:00,39.6,23.8,30.16,SSE,158,2.1,3.5,53,0.00,CLR,,0.10,WeatherDisplay:10.37,2013-03-10 03:35:00,
2013-03-09 22:40:00,39.6,22.9,30.16,South,180,4.3,5.8,51,0.00,CLR,,0.10,WeatherDisplay:10.37,2013-03-10 03:40:00,
2013-03-09 22:45:00,39.7,23.1,30.16,SSE,158,2.4,4.6,51,0.00,CLR,,0.10,WeatherDisplay:10.37,2013-03-10 03:45:00,
2013-03-09 22:50:00,38.8,22.7,30.16,SE,135,2.5,2.5,52,0.00,CLR,,0.10,WeatherDisplay:10.37,2013-03-10 03:50:00,
2013-03-09 22:55:00,38.5,22.4,30.15,SSE,158,4.9,4.9,52,0.00,CLR,,0.10,WeatherDisplay:10.37,2013-03-10 03:55:00,
2013-03-09 23:00:00,39.0,22.9,30.15,SE,135,6.7,6.7,52,0.00,CLR,,0.10,WeatherDisplay:10.37,2013-03-10 04:00:00,
2013-03-09 23:05:00,39.6,22.9,30.15,SE,135,3.1,4.6,51,0.00,CLR,,0.10,WeatherDisplay:10.37,2013-03-10 04:05:00,
2013-03-09 23:10:00,39.9,22.8,30.15,SE,135,6.1,6.1,50,0.00,CLR,,0.10,WeatherDisplay:10.37,2013-03-10 04:10:00,
2013-03-09 23:15:00,39.9,22.3,30.15,SE,135,7.3,8.1,49,0.00,CLR,,0.10,WeatherDisplay:10.37,2013-03-10 04:15:00,
2013-03-09 23:20:00,40.1,22.4,30.15,SSE,158,7.8,9.2,49,0.00,CLR,,0.10,WeatherDisplay:10.37,2013-03-10 04:20:00,
2013-03-09 23:25:00,40.3,22.6,30.15,SE,135,7.0,9.2,49,0.00,CLR,,0.10,WeatherDisplay:10.37,2013-03-10 04:25:00,
2013-03-09 23:31:00,40.6,22.9,30.15,SSE,160,6.0,9.0,49,0.00,CLR,CLR,0.10,WeatherDisplay:10.37,2013-03-10 04:31:00,
2013-03-09 23:36:00,40.8,23.1,30.15,South,180,5.2,5.2,49,0.00,CLR,,0.10,WeatherDisplay:10.37,2013-03-10 04:36:00,
2013-03-09 23:42:00,40.8,23.1,30.15,SE,135,4.3,5.8,49,0.00,CLR,,0.10,WeatherDisplay:10.37,2013-03-10 04:42:00,
2013-03-09 23:47:00,41.0,22.8,30.15,South,180,5.5,5.5,48,0.00,CLR,,0.10,WeatherDisplay:10.37,2013-03-10 04:47:00,
2013-03-09 23:52:00,41.0,22.8,30.15,SSE,158,6.7,6.9,48,0.00,CLR,,0.10,WeatherDisplay:10.37,2013-03-10 04:52:00,
2013-03-09 23:58:00,41.0,22.3,30.15,SSE,158,6.1,9.2,47,0.00,CLR,,0.10,WeatherDisplay:10.37,2013-03-10 04:58:00,